Kezdőlap
METAR-TAF:

METAR-TAF

Repülőterek :

Erie, Colorado, Amerikai Egyesült Államok

földrajzi szélesség: 40-00-37N, földrajzi hosszúság: 105-02-53W, magasság: 1564 m

Jelenlegi meteorológiai megfigyelések

A jelentés 20 perccel ezelõtt készült, 08:55 UTC
Szélcsend
Hőmérséklet -13°C
Páratartalom 85%
Légköri nyomás 1019 hPa
Látótávolság: 8.0 km
Derült ég
Párásság

METAR: KEIK 280855Z AUTO 00000KT 5SM BR CLR M13/M15 A3009 RMK AO2 T11341148

Idő: 02:15 (09:15 UTC)


TAF: hiányzik

Meteorológiai megfigyelések és előrejelzések több, mint 4000 repülőtéren (METAR és TAF jelentéseket).

A térképen piros és sárga pontok jelzik az elérhető meteorológiai állomásokat.

Mozgassa az egeret a pont fölött, hogy megjelenjen az állomás neve.

Azután kattintson az időjárási megfigyelések és előrejelzések megtekintéséhez.

A térkép megváltoztatása: kattintson a fekete keresztel jelölt zöld gombra ráközelítéshez, a vonallal jelölt zöld gombra távolításhoz, vagy a zöld nyilakra a szomszédos térképek eléréséhez.


METAR-TAF: